BEIDOU-3 IGSO-2

Last updated on Thu Jul 03 2025 00:02:48 GMT+0000 (Coordinated Universal Time)

1 44337U 19035A 25183.32961532 -.00000074 00000+0 00000+0 0 9999 2 44337 55.2142 161.9350 0035575 210.8785 146.1495 1.00266531 22157
UTC large
Height (km)
Speed (km/s)
/
Latitude / Longitude
Inclination (degrees)
Orbital Period (minutes)
Azimuth
Elevation
Range (km)
Doppler Factor

Next 0 passes for location: London (51.5072 / 0.1276)

Sorry there are no passes over London.